Location: Unspecified
(0.0000°N, 0.0000°E)
Time: 03:42:59
(UTC+02:00)

SJ-6B - Visible Passes

Search period start: 22 June 2018 00:00
Search period end: 02 July 2018 00:00
Orbit: 512 x 582 km, 97.7° (Epoch: 21 June)

Date Brightness Start Highest point End Pass type
(mag) Time Alt. Az. Time Alt. Az. Time Alt. Az.
22 Jun 3.7 21:32:45 33° NE 21:32:45 33° NE 21:35:28 10° N visible
23 Jun 3.8 21:27:25 29° NE 21:27:25 29° NE 21:30:04 10° NNE visible
24 Jun 4.0 21:22:03 25° ENE 21:22:03 25° ENE 21:24:39 10° NNE visible
25 Jun 4.2 21:16:42 22° ENE 21:16:42 22° ENE 21:19:11 10° NNE visible
26 Jun 4.4 21:11:21 18° ENE 21:11:21 18° ENE 21:13:38 10° NNE visible
26 Jun 6.1 22:47:00 10° WNW 22:47:00 10° WNW 22:47:05 10° WNW visible
27 Jun 4.6 21:06:00 16° ENE 21:06:00 16° ENE 21:08:01 10° NE visible
27 Jun 5.9 22:41:39 13° WNW 22:41:39 13° WNW 22:42:24 10° WNW visible
28 Jun 4.7 21:00:39 13° ENE 21:00:39 13° ENE 21:02:15 10° NE visible
28 Jun 5.7 22:36:18 15° WNW 22:36:18 15° WNW 22:37:33 10° NW visible
29 Jun 4.9 20:55:19 11° ENE 20:55:19 11° ENE 20:56:10 10° ENE visible
29 Jun 5.4 22:30:58 18° WNW 22:30:58 18° WNW 22:32:37 10° NW visible
30 Jun 5.2 22:25:37 22° WNW 22:25:37 22° WNW 22:27:38 10° NW visible
01 Jul 4.9 22:20:16 26° WNW 22:20:16 26° WNW 22:22:35 10° NW visible
